Fortuna, CA

3:26 AM PST on December 12, 2019 (GMT -0800)
Rohnerville

Weather History for KFOT - September, 2019

Change the Weather History Date:

Thursday, September 19, 2019

  Actual Average (KEKA) Record (KEKA)
Temperature  
Mean Temperature 60 °F -  
Max Temperature 68 °F 64 °F 80 °F (1984)
Min Temperature 53 °F 52 °F 43 °F (1908)
Degree Days  
Heating Degree Days 4    
Growing Degree Days 10 (Base 50)    
Moisture  
Dew Point 55 °F    
Average Humidity 85    
Maximum Humidity 100    
Minimum Humidity 59    
Precipitation  
Precipitation 0.00 in - - ()
Sea Level Pressure  
Sea Level Pressure 30.03 in    
Wind  
Wind Speed 5 mph ()    
Max Wind Speed 17 mph    
Max Gust Speed 22 mph    
Visibility 7.4 miles    
Events      
Averages and records for this station are not official NWS values.
T = Trace of Precipitation, MM = Missing Value Source: Averaged Metar Reports

Daily Weather History Graph

Daily Weather History Graph

Search for Another Location

Airport or City:

Astronomy

Sep. 19, 2019 Rise Set
Actual Time 7:01 AM PDT 7:18 PM PDT
Civil Twilight 6:33 AM PDT 7:46 PM PDT
Nautical Twilight 6:01 AM PDT 8:18 PM PDT
Astronomical Twilight 5:28 AM PDT 8:50 PM PDT
Moon 10:30 PM PDT (9/19) 12:11 PM PDT (9/19)
Length of Visible Light 13h 12m
Length of Day
12h 17m
Waning Gibbous, 73% of the Moon is Illuminated
Sep 19
Waning Gibbous
Sep 21
Last Quarter
Sep 28
New
Oct 5
First Quarter
Oct 13
Full

Hourly Weather History & Observations

Time (PDT) Temp. Dew Point Humidity Pressure Visibility Wind Dir Wind Speed Gust Speed Precip Events Conditions
12:15 AM 57.2 °F 57.2 °F 100% 30.01 in 5.0 mi Calm Calm - N/A   Mostly Cloudy
12:35 AM 57.2 °F 57.2 °F 100% 30.01 in 0.5 mi Calm Calm - N/A   Overcast
12:50 AM 57.2 °F 57.2 °F 100% 30.01 in 1.5 mi Calm Calm - N/A   Overcast
1:10 AM 57.2 °F 57.2 °F 100% 30.01 in 0.5 mi NW 3.5 mph - N/A   Overcast
1:35 AM 57.2 °F 57.2 °F 100% 30.01 in 2.0 mi NNW 3.5 mph - N/A   Overcast
1:55 AM 57.2 °F 57.2 °F 100% 30.01 in 0.8 mi Calm Calm - N/A   Overcast
2:15 AM 57.2 °F 57.2 °F 100% 30.02 in 0.5 mi NW 3.5 mph - N/A   Overcast
2:35 AM 55.4 °F 55.4 °F 100% 30.01 in 0.2 mi NW 3.5 mph - N/A   Overcast
2:55 AM 55.4 °F 55.4 °F 100% 30.01 in 0.2 mi WNW 3.5 mph - N/A   Overcast
3:15 AM 55.4 °F 55.4 °F 100% 30.02 in 0.5 mi Calm Calm - N/A   Overcast
3:35 AM 55.4 °F 55.4 °F 100% 30.01 in 0.2 mi WNW 3.5 mph - N/A   Overcast
3:50 AM 55.4 °F 55.4 °F 100% 30.01 in 0.2 mi Calm Calm - N/A   Overcast
4:15 AM 55.4 °F 55.4 °F 100% 30.01 in 0.2 mi NW 4.6 mph - N/A   Overcast
4:35 AM 55.4 °F 55.4 °F 100% 30.02 in 0.2 mi Calm Calm - N/A   Overcast
4:55 AM 55.4 °F 55.4 °F 100% 30.01 in 0.2 mi NNW 3.5 mph - N/A   Overcast
5:15 AM 55.4 °F 55.4 °F 100% 30.02 in 0.2 mi Calm Calm - N/A   Overcast
5:55 AM 55.4 °F 53.6 °F 94% 30.01 in 0.2 mi Calm Calm - N/A   Overcast
6:15 AM 53.6 °F 53.6 °F 100% 30.02 in 0.2 mi Calm Calm - N/A   Mostly Cloudy
6:35 AM 53.6 °F 53.6 °F 100% 30.02 in 0.2 mi NNW 3.5 mph - N/A   Mostly Cloudy
6:50 AM 53.6 °F 53.6 °F 100% 30.02 in 1.0 mi NW 5.8 mph - N/A   Clear
7:10 AM 53.6 °F 53.6 °F 100% 30.03 in 10.0 mi WNW 5.8 mph - N/A   Clear
7:35 AM 55.4 °F 53.6 °F 94% 30.04 in 10.0 mi WNW 8.1 mph - N/A   Clear
7:55 AM 55.4 °F 55.4 °F 100% 30.04 in 10.0 mi WNW 6.9 mph - N/A   Clear
8:15 AM 55.4 °F 55.4 °F 100% 30.04 in 10.0 mi NW 3.5 mph - N/A   Partly Cloudy
8:35 AM 55.4 °F 55.4 °F 100% 30.04 in 10.0 mi NW 3.5 mph - N/A   Scattered Clouds
8:55 AM 57.2 °F 55.4 °F 94% 30.04 in 10.0 mi WNW 5.8 mph - N/A   Partly Cloudy
9:15 AM 57.2 °F 57.2 °F 100% 30.04 in 10.0 mi WNW 5.8 mph - N/A   Clear
9:35 AM 57.2 °F 55.4 °F 94% 30.05 in 10.0 mi WNW 8.1 mph - N/A   Scattered Clouds
9:55 AM 59.0 °F 55.4 °F 88% 30.05 in 10.0 mi NW 8.1 mph - N/A   Mostly Cloudy
10:15 AM 59.0 °F 55.4 °F 88% 30.06 in 10.0 mi NW 10.4 mph - N/A   Mostly Cloudy
10:35 AM 62.6 °F 55.4 °F 77% 30.06 in 10.0 mi NW 8.1 mph - N/A   Mostly Cloudy
10:55 AM 62.6 °F 55.4 °F 77% 30.05 in 10.0 mi NNW 8.1 mph - N/A   Mostly Cloudy
11:15 AM 62.6 °F 55.4 °F 77% 30.05 in 10.0 mi WNW 9.2 mph - N/A   Mostly Cloudy
11:35 AM 62.6 °F 55.4 °F 77% 30.05 in 10.0 mi WNW 9.2 mph - N/A   Overcast
11:55 AM 64.4 °F 53.6 °F 68% 30.05 in 10.0 mi WNW 5.8 mph 16.1 mph N/A   Mostly Cloudy
12:15 PM 64.4 °F 53.6 °F 68% 30.05 in 10.0 mi NW 8.1 mph - N/A   Overcast
12:35 PM 66.2 °F 53.6 °F 64% 30.05 in 10.0 mi NNW 8.1 mph - N/A   Mostly Cloudy
12:55 PM 66.2 °F 51.8 °F 60% 30.04 in 10.0 mi NW 10.4 mph 16.1 mph N/A   Mostly Cloudy
1:15 PM 66.2 °F 51.8 °F 60% 30.04 in 10.0 mi WNW 13.8 mph - N/A   Mostly Cloudy
1:35 PM 66.2 °F 51.8 °F 60% 30.04 in 10.0 mi WNW 12.7 mph 19.6 mph N/A   Partly Cloudy
1:55 PM 66.2 °F 51.8 °F 60% 30.03 in 10.0 mi West 15.0 mph - N/A   Scattered Clouds
2:15 PM 66.2 °F 51.8 °F 60% 30.03 in 10.0 mi West 15.0 mph 18.4 mph N/A   Partly Cloudy
2:35 PM 68.0 °F 53.6 °F 60% 30.03 in 10.0 mi WNW 12.7 mph - N/A   Partly Cloudy
2:55 PM 68.0 °F 53.6 °F 60% 30.03 in 10.0 mi WNW 15.0 mph - N/A   Scattered Clouds
3:15 PM 68.0 °F 53.6 °F 60% 30.04 in 10.0 mi WNW 17.3 mph 21.9 mph N/A   Scattered Clouds
3:35 PM 66.2 °F 53.6 °F 64% 30.04 in 10.0 mi NNW 15.0 mph 19.6 mph N/A   Mostly Cloudy
3:55 PM 64.4 °F 50.0 °F 59% 30.03 in 10.0 mi NW 13.8 mph 18.4 mph N/A   Scattered Clouds
4:15 PM 66.2 °F 51.8 °F 60% 30.04 in 10.0 mi NNW 12.7 mph - N/A   Clear
4:35 PM 66.2 °F 51.8 °F 60% 30.04 in 10.0 mi NNW 15.0 mph 19.6 mph N/A   Partly Cloudy
4:55 PM 66.2 °F 53.6 °F 64% 30.03 in 10.0 mi NNW 12.7 mph 19.6 mph N/A   Partly Cloudy
5:15 PM 66.2 °F 53.6 °F 64% 30.03 in 10.0 mi NW 12.7 mph 17.3 mph N/A   Clear
5:35 PM 66.2 °F 53.6 °F 64% 30.03 in 10.0 mi NW 11.5 mph - N/A   Clear
5:55 PM 64.4 °F 55.4 °F 73% 30.04 in 10.0 mi WNW 10.4 mph - N/A   Clear
6:15 PM 64.4 °F 55.4 °F 73% 30.03 in 10.0 mi West 13.8 mph - N/A   Clear
6:35 PM 62.6 °F 55.4 °F 77% 30.04 in 10.0 mi WNW 10.4 mph - N/A   Clear
6:55 PM 59.0 °F 55.4 °F 88% 30.04 in 10.0 mi West 9.2 mph - N/A   Clear
7:15 PM 59.0 °F 55.4 °F 88% 30.04 in 10.0 mi West 8.1 mph - N/A   Clear
7:35 PM 59.0 °F 55.4 °F 88% 30.03 in 10.0 mi West 8.1 mph - N/A   Clear
7:55 PM 57.2 °F 55.4 °F 94% 30.04 in 10.0 mi West 9.2 mph - N/A   Clear
8:15 PM 57.2 °F 55.4 °F 94% 30.04 in 10.0 mi West 6.9 mph - N/A   Clear
8:35 PM 57.2 °F 55.4 °F 94% 30.04 in 10.0 mi West 8.1 mph - N/A   Clear
8:55 PM 57.2 °F 55.4 °F 94% 30.04 in 10.0 mi West 8.1 mph - N/A   Clear
9:15 PM 57.2 °F 55.4 °F 94% 30.04 in 10.0 mi West 8.1 mph - N/A   Mostly Cloudy
9:35 PM 59.0 °F 55.4 °F 88% 30.04 in 10.0 mi West 5.8 mph - N/A   Overcast
9:55 PM 59.0 °F 55.4 °F 88% 30.04 in 10.0 mi West 5.8 mph - N/A   Overcast
10:15 PM 59.0 °F 55.4 °F 88% 30.04 in 10.0 mi WNW 5.8 mph - N/A   Overcast
10:35 PM 59.0 °F 55.4 °F 88% 30.04 in 10.0 mi NNW 5.8 mph - N/A   Overcast
10:55 PM 59.0 °F 55.4 °F 88% 30.04 in 10.0 mi WNW 3.5 mph - N/A   Overcast
11:15 PM 59.0 °F 55.4 °F 88% 30.03 in 10.0 mi WNW 3.5 mph - N/A   Overcast
11:35 PM 59.0 °F 57.2 °F 94% 30.04 in 10.0 mi Calm Calm - N/A   Overcast
11:55 PM 57.2 °F 57.2 °F 100% 30.04 in 10.0 mi Calm Calm - N/A   Overcast